User: anonymous
Location: Caltech
(34.1382°N, 118.1253°W)
Time: 02:26:30
(UTC-07:00)
Language:

TITAN 4B R/B - Orbit

View from above orbital plane
View from above orbital plane
View from above satellite
View from above satellite

Ground track
Ground track

The orbit data is extracted from the following two-line orbital elements,

1 28647U 05016B   14104.14381583 0.00008500  00000-0  56179-3 0    09
2 28647  57.0066  31.9540 0135548  46.8764 313.1235 14.99651575    06
Epoch (UTC): 14 April 2014 03:27:05
Eccentricity: 0.0135548
inclination: 57.0066°
perigee height: 474 km
apogee height: 662 km
right ascension of ascending node: 31.9540°
argument of perigee: 46.8764°
revolutions per day: 14.99651575
mean anomaly at epoch: 313.1235°
orbit number at epoch: 0

The dashed part of the orbit path shows where the satellite is in the earth's shadow,  

DLR